Погода в Банбери

Великобритания     52°03′36″N   1°20′25″W
темп.,
°C
ветер,
м/с
пор.,
м/с
влажн.,
%
обл.,
%
осадки,
мм/ч
давл.,
гПа
погр.,
м
23 апреля, пт
пт2301:00+1вюв23831 0.0 102928
04:00−1в22855 0.0 102921
07:00+1в36805 0.0 1029122
10:00+9вюв57610 0.0 1029542
13:00+13вюв565282 0.0 10281014
16:00+13вюв565135 0.0 10281120
19:00+10в4871100 0.0 1028280
22:00+4вюв4980100 0.0 1029139
24 апреля, сб
сб2401:00+2в3774100 0.0 1029102
04:00+1в387840 0.0 1028131
07:00+2всв397950 0.0 1029192
10:00+9в586423 0.0 1029614
13:00+13в686090 0.0 10281211
16:00+13всв6859100 0.0 10271335
19:00+10всв6107413 0.0 1028556
22:00+4всв411910 0.0 1030283
25 апреля, вс
вс2501:00+2всв511975 0.0 1030298
04:00+1всв4119714 0.0 1030296
07:00+2всв411954 0.0 1030384
10:00+7всв687116 0.0 1030806
13:00+11всв67595 0.0 10281100
16:00+12всв675818 0.0 10271298
19:00+8св7107491 0.0 1027630
22:00+3св5119073 0.0 1028283
26 апреля, пн
пн2601:000св410971 0.0 1027199
04:00−1св389711 0.0 1026142
07:000св379613 0.0 1025194
10:00+7всв456738 0.0 1023625
13:00+11всв4556100 0.0 1021951
16:00+12св4458100 0.0 10181182
19:00+10св2376100 0.0 101681
22:00+5всв228582 0.0 101611
27 апреля, вт
вт2701:00+3ююз118972 0.0 101410
04:00+3зюз118889 0.0 101210
07:00+5сз1384100 0.1 1011110
10:00+8сз238197 0.3 1010799
13:00+10с347448 0.8 1009989
16:00+9ссв568396 1.0 1009991
19:00+5св6995100 1.4 1010881
22:00+5ссв4109679 0.2 1012661